• In Czech Republic
  • List of Countries
  • For 7 days
  • Water Temperature
  • Satellite Maps
  • Weather Map
  • Weather Widgets
  • user-avatar
    Login

    Hourly Weather Stirling

    Today, 21 September, Friday

    Time Temperature Precipitation Wind Pressure Humidity
    00:00 +8°C° 0.5 mm 3 mps 744 mmHg 91%
    01:00 +8°C° 0.4 mm 3 mps 744 mmHg 91%
    02:00 +7°C° 0.4 mm 3 mps 744 mmHg 90%
    03:00 +6°C° 0.4 mm 4 mps 743 mmHg 90%
    04:00 +6°C° 0.1 mm 4 mps 744 mmHg 90%
    05:00 +6°C° 0.1 mm 4 mps 744 mmHg 90%
    06:00 +6°C° 0 mm 4 mps 743 mmHg 92%
    07:00 +7°C° 0 mm 5 mps 744 mmHg 89%
    08:00 +8°C° 0 mm 6 mps 744 mmHg 87%
    09:00 +8°C° 0 mm 7 mps 745 mmHg 84%
    10:00 +9°C° 0.1 mm 6 mps 746 mmHg 81%
    11:00 +10°C° 0.1 mm 6 mps 747 mmHg 79%
    12:00 +10°C° 0.1 mm 6 mps 747 mmHg 76%
    13:00 +11°C° 0.2 mm 6 mps 748 mmHg 74%
    14:00 +11°C° 0.2 mm 6 mps 749 mmHg 73%
    15:00 +11°C° 0.2 mm 6 mps 750 mmHg 71%
    16:00 +10°C° 0 mm 5 mps 751 mmHg 74%
    17:00 +9°C° 0 mm 5 mps 752 mmHg 76%
    18:00 +8°C° 0 mm 5 mps 753 mmHg 79%
    19:00 +8°C° 0 mm 5 mps 753 mmHg 82%
    20:00 +7°C° 0 mm 5 mps 754 mmHg 85%
    21:00 +7°C° 0 mm 5 mps 754 mmHg 87%
    22:00 +7°C° 0 mm 5 mps 755 mmHg 86%
    23:00 +7°C° 0 mm 5 mps 755 mmHg 85%

    Tomorrow, 22 September, Saturday

    Time Temperature Precipitation Wind Pressure Humidity
    00:00 +6°C° 0 mm 5 mps 755 mmHg 83%
    01:00 +5°C° 0 mm 6 mps 756 mmHg 83%
    02:00 +7°C° 0 mm 6 mps 756 mmHg 83%
    03:00 +7°C° 0 mm 6 mps 756 mmHg 83%
    04:00 +7°C° 0 mm 6 mps 756 mmHg 82%
    05:00 +5°C° 0 mm 6 mps 756 mmHg 82%
    06:00 +5°C° 0 mm 7 mps 756 mmHg 81%
    07:00 +6°C° 0 mm 7 mps 757 mmHg 79%
    08:00 +8°C° 0 mm 7 mps 757 mmHg 77%
    09:00 +9°C° 0 mm 8 mps 758 mmHg 75%
    10:00 +10°C° 0.1 mm 7 mps 758 mmHg 73%
    11:00 +11°C° 0.1 mm 7 mps 759 mmHg 71%
    12:00 +11°C° 0.1 mm 6 mps 759 mmHg 70%
    13:00 +11°C° 0.1 mm 6 mps 760 mmHg 70%
    14:00 +12°C° 0.1 mm 5 mps 760 mmHg 69%
    15:00 +12°C° 0.1 mm 5 mps 760 mmHg 69%
    16:00 +11°C° 0 mm 4 mps 761 mmHg 73%
    17:00 +10°C° 0 mm 3 mps 761 mmHg 78%
    18:00 +9°C° 0 mm 3 mps 761 mmHg 82%
    19:00 +8°C° 0 mm 2 mps 762 mmHg 85%
    20:00 +7°C° 0 mm 2 mps 762 mmHg 87%
    21:00 +7°C° 0 mm 1 mps 763 mmHg 90%
    22:00 +7°C° 0 mm 1 mps 763 mmHg 89%
    23:00 +6°C° 0 mm 1 mps 763 mmHg 89%

    Day after tomorrow, 23 September, Sunday

    Time Temperature Precipitation Wind Pressure Humidity
    00:00 +6°C° 0 mm 1 mps 763 mmHg 89%
    01:00 +6°C° 0 mm 1 mps 763 mmHg 89%
    02:00 +6°C° 0 mm 1 mps 763 mmHg 89%
    03:00 +6°C° 0 mm 1 mps 763 mmHg 89%
    04:00 +6°C° 0 mm 1 mps 763 mmHg 88%
    05:00 +5°C° 0 mm 1 mps 763 mmHg 88%
    06:00 +5°C° 0 mm 1 mps 763 mmHg 87%
    07:00 +7°C° 0 mm 1 mps 763 mmHg 82%
    08:00 +8°C° 0 mm 1 mps 763 mmHg 76%
    09:00 +10°C° 0 mm 1 mps 764 mmHg 71%
    10:00 +11°C° 0 mm 1 mps 764 mmHg 65%
    11:00 +12°C° 0 mm 1 mps 764 mmHg 60%
    12:00 +13°C° 0 mm 2 mps 764 mmHg 54%
    13:00 +13°C° 0.1 mm 2 mps 765 mmHg 55%
    14:00 +13°C° 0.1 mm 3 mps 765 mmHg 56%
    15:00 +13°C° 0.1 mm 3 mps 765 mmHg 57%
    16:00 +11°C° 0.1 mm 3 mps 766 mmHg 65%
    17:00 +10°C° 0.1 mm 4 mps 767 mmHg 72%
    18:00 +7°C° 0.1 mm 4 mps 767 mmHg 79%
    19:00 +7°C° 0 mm 3 mps 768 mmHg 82%
    20:00 +5°C° 0 mm 3 mps 769 mmHg 84%
    21:00 +4°C° 0 mm 3 mps 770 mmHg 87%
    22:00 +4°C° 0 mm 3 mps 771 mmHg 88%
    23:00 +4°C° 0 mm 3 mps 771 mmHg 89%

    24 September, Monday

    Time Temperature Precipitation Wind Pressure Humidity
    00:00 +4°C° 0 mm 3 mps 772 mmHg 89%
    01:00 +4°C° 0 mm 2 mps 772 mmHg 90%
    02:00 +4°C° 0 mm 2 mps 773 mmHg 90%
    03:00 +4°C° 0 mm 2 mps 773 mmHg 91%
    04:00 +4°C° 0 mm 2 mps 774 mmHg 91%
    05:00 +4°C° 0 mm 2 mps 774 mmHg 91%
    06:00 +4°C° 0 mm 2 mps 774 mmHg 92%
    07:00 +5°C° 0 mm 3 mps 775 mmHg 86%
    08:00 +8°C° 0 mm 3 mps 775 mmHg 80%
    09:00 +10°C° 0 mm 4 mps 776 mmHg 75%
    10:00 +11°C° 0 mm 4 mps 776 mmHg 71%
    11:00 +12°C° 0 mm 4 mps 776 mmHg 67%
    12:00 +13°C° 0 mm 4 mps 776 mmHg 63%
    13:00 +13°C° 0 mm 4 mps 776 mmHg 63%
    14:00 +13°C° 0 mm 5 mps 776 mmHg 64%
    15:00 +13°C° 0 mm 5 mps 776 mmHg 64%
    16:00 +11°C° 0 mm 4 mps 776 mmHg 70%
    17:00 +10°C° 0 mm 4 mps 777 mmHg 75%
    18:00 +9°C° 0 mm 3 mps 777 mmHg 80%
    19:00 +8°C° 0 mm 3 mps 777 mmHg 84%
    20:00 +7°C° 0 mm 3 mps 777 mmHg 88%
    21:00 +6°C° 0 mm 2 mps 778 mmHg 92%
    22:00 +6°C° 0 mm 2 mps 778 mmHg 92%
    23:00 +6°C° 0 mm 2 mps 777 mmHg 93%

    25 September, Tuesday

    Time Temperature Precipitation Wind Pressure Humidity
    00:00 +5°C° 0 mm 3 mps 777 mmHg 94%
    01:00 +5°C° 0 mm 3 mps 777 mmHg 94%
    02:00 +5°C° 0 mm 3 mps 777 mmHg 94%
    03:00 +5°C° 0 mm 3 mps 776 mmHg 94%
    04:00 +5°C° 0 mm 3 mps 776 mmHg 94%
    05:00 +5°C° 0 mm 3 mps 776 mmHg 94%
    06:00 +5°C° 0 mm 3 mps 775 mmHg 95%
    07:00 +6°C° 0 mm 4 mps 775 mmHg 89%
    08:00 +8°C° 0 mm 5 mps 775 mmHg 84%
    09:00 +9°C° 0 mm 5 mps 774 mmHg 79%
    10:00 +10°C° 0 mm 6 mps 774 mmHg 74%
    11:00 +11°C° 0 mm 6 mps 773 mmHg 70%
    12:00 +12°C° 0 mm 7 mps 773 mmHg 65%
    13:00 +12°C° 0 mm 7 mps 772 mmHg 66%
    14:00 +12°C° 0 mm 7 mps 771 mmHg 67%
    15:00 +12°C° 0 mm 7 mps 770 mmHg 68%
    16:00 +11°C° 0 mm 7 mps 770 mmHg 72%
    17:00 +11°C° 0 mm 6 mps 769 mmHg 77%
    18:00 +10°C° 0 mm 6 mps 769 mmHg 81%
    19:00 +10°C° 0 mm 6 mps 769 mmHg 82%
    20:00 +10°C° 0 mm 6 mps 768 mmHg 83%
    21:00 +10°C° 0 mm 6 mps 768 mmHg 84%
    22:00 +10°C° 0 mm 7 mps 768 mmHg 84%
    23:00 +10°C° 0 mm 7 mps 767 mmHg 84%

    26 September, Wednesday

    Time Temperature Precipitation Wind Pressure Humidity
    00:00 +10°C° 0 mm 7 mps 767 mmHg 84%
    01:00 +10°C° 0 mm 7 mps 766 mmHg 84%
    02:00 +10°C° 0 mm 7 mps 766 mmHg 84%
    03:00 +10°C° 0 mm 7 mps 765 mmHg 84%
    04:00 +10°C° 0.2 mm 6 mps 765 mmHg 85%
    05:00 +10°C° 0.2 mm 6 mps 764 mmHg 85%
    06:00 +10°C° 0.2 mm 6 mps 764 mmHg 86%
    07:00 +11°C° 0.3 mm 6 mps 764 mmHg 87%
    08:00 +11°C° 0.3 mm 6 mps 764 mmHg 88%
    09:00 +11°C° 0.3 mm 6 mps 764 mmHg 89%
    10:00 +11°C° 0.3 mm 6 mps 763 mmHg 90%
    11:00 +13°C° 0.3 mm 6 mps 763 mmHg 91%
    12:00 +13°C° 0.3 mm 6 mps 763 mmHg 92%
    13:00 +13°C° 0.2 mm 6 mps 763 mmHg 92%
    14:00 +13°C° 0.2 mm 6 mps 762 mmHg 92%
    15:00 +14°C° 0.2 mm 6 mps 762 mmHg 92%
    16:00 +14°C° 0.1 mm 6 mps 762 mmHg 92%
    17:00 +14°C° 0.1 mm 6 mps 762 mmHg 93%
    18:00 +14°C° 0.1 mm 6 mps 761 mmHg 93%
    19:00 +15°C° 0.1 mm 6 mps 761 mmHg 93%
    20:00 +15°C° 0.1 mm 6 mps 761 mmHg 93%
    21:00 +15°C° 0.1 mm 6 mps 761 mmHg 94%
    22:00 +15°C° 0.2 mm 6 mps 761 mmHg 94%
    23:00 +15°C° 0.2 mm 6 mps 760 mmHg 94%
    Show more